Вернуться в каталог

STARLINK-11597

АктивенСвязьVLEO
NORAD 63115·PAYLOAD·🇺🇸 United States

Запущен Feb 27, 2025 с Cape Canaveral Space Force Station

Loading…

Ближайшие Пролёты (ближайшие 24 часа)

TLE

СвежийSource: CelesTrak SupGP

Эпоха: Sep 15, 2026, 03:20 UTC

1 63115C 25039M   26258.13937500 -.00007840  00000+0 -60918-4 0  2582
2 63115  43.0005 174.5913 0001507 264.8599 125.1205 15.70833037    10

Отслеживайте STARLINK-11597 в реальном времени с AllMySat

Download on the App Store